RH
65 66 67 71 73 78 79 87 91 97 98 98 99 93 75 64 55 55 63 72 66 68 39 38 36 13 26 59 51 55 66 71 75 71 73 70 67 64 44 40 46 59 58
58 66 72 71 76 84 85 97 100 100 99 99 99 97 90 78 68 75 68 60 80 61 52 41 39 40 22 12 40 50 58 70 72 74 73 76 76 69 64 47 32 34 49
53 62 70 70 90 90 85 90 97 100 99 97 99 100 92 78 65 52 40 24 14 10 14 30 51 47 42 37 14 27 46 43 50 56 59 67 75 77 74 74 68 44 28
59 61 68 74 89 97 98 99 99 99 99 98 94 96 82 63 54 40 28 9 8 7 7 11 21 27 38 45 44 38 17 11 26 37 44 58 66 75 76 80 80 75 69
75 83 85 96 92 99 95 100 98 96 97 97 87 70 60 46 32 22 10 9 10 10 10 9 8 8 9 15 25 39 46 44 38 19 14 32 44 56 63 64 71 77 80
93 95 94 100 100 98 100 91 96 100 94 96 76 62 49 39 19 10 10 10 9 9 9 9 9 8 9 9 9 8 8 14 27 42 42 34 16 12 27 43 49 50 67
90 91 97 98 97 97 97 95 96 92 85 76 63 55 37 21 11 11 10 10 9 9 9 9 9 9 8 8 8 8 8 8 8 8 9 15 29 37 40 23 16 27 36
86 96 95 96 100 89 83 98 86 71 58 52 39 24 18 11 11 10 10 10 9 9 9 9 9 8 8 8 8 8 8 8 8 8 8 8 8 8 8 12 35 26 15
88 88 90 100 99 100 94 79 74 56 52 47 25 16 12 11 10 10 10 9 9 9 9 9 9 8 8 8 8 8 8 7 7 7 7 8 8 8 8 7 8 11 30
81 93 96 93 98 91 92 80 65 59 58 46 25 20 14 11 11 10 10 10 9 9 9 9 9 9 8 8 9 9 9 10 10 10 9 8 8 7 7 7 7 8 8
68 82 78 72 72 77 92 85 76 63 60 53 30 27 20 15 13 11 9 9 10 10 10 9 9 10 11 12 14 15 16 17 17 17 17 16 15 14 12 11 9 8 7
39 52 72 71 77 83 88 85 75 75 66 59 43 29 23 17 12 10 10 10 10 10 10 10 12 15 17 18 20 21 21 20 20 19 19 18 18 18 18 18 17 16 14
48 43 54 53 63 76 79 78 74 70 73 62 48 37 23 15 11 10 11 11 11 10 10 13 17 20 21 22 21 20 19 18 16 15 15 14 13 13 12 12 12 12 12
17 35 58 52 53 58 83 75 76 73 70 64 55 39 24 15 12 11 12 11 11 11 13 18 21 23 23 22 21 20 18 16 15 16 16 15 15 15 14 14 14 13 13
13 15 28 51 48 46 70 73 77 82 83 75 60 41 24 16 13 12 12 12 12 12 17 21 23 24 24 23 21 20 19 16 16 16 17 17 18 18 17 17 16 15 15
16 15 17 25 32 36 60 75 90 84 78 66 57 32 17 16 14 13 13 13 13 15 20 23 25 26 25 23 21 19 19 18 18 18 18 19 20 20 19 18 17 16 16
18 19 17 18 23 28 44 68 80 72 60 53 40 23 18 17 15 15 15 15 16 19 22 25 27 27 26 26 24 22 21 20 20 20 20 21 22 21 19 18 17 15 14
19 19 18 18 17 19 21 31 39 46 34 36 29 22 19 17 17 16 16 16 17 22 24 26 28 28 28 26 25 24 22 22 23 22 22 23 23 21 20 18 16 14 13
20 23 23 22 21 20 19 22 28 31 34 33 24 22 20 20 20 18 18 18 20 25 26 27 28 30 30 29 28 27 25 26 26 26 26 25 24 22 20 18 16 15 13
18 21 22 26 27 27 25 24 22 22 28 29 26 25 23 22 23 21 20 21 23 29 29 29 31 31 32 31 30 28 28 29 28 28 28 27 25 23 21 19 17 16 14
18 17 19 26 29 29 27 27 26 27 32 38 39 34 32 31 28 26 22 22 27 31 32 31 31 32 32 32 31 29 28 29 30 30 29 28 26 23 21 19 17 16 14
23 22 20 21 25 31 35 36 38 42 42 38 34 32 35 36 32 30 26 26 29 33 35 34 34 34 34 33 32 30 30 31 32 32 31 29 27 24 21 19 17 16 14
21 23 23 23 24 28 36 42 44 42 40 37 37 40 44 42 39 37 32 30 33 36 38 38 37 36 35 34 33 32 31 31 33 33 32 31 28 25 22 20 18 16 15
23 26 27 30 32 32 36 44 50 52 52 56 82 74 61 55 48 41 36 35 39 43 44 42 40 38 37 36 35 33 34 35 37 39 38 37 34 28 23 20 18 15 13
22 26 32 37 39 39 42 46 56 63 67 82 92 89 78 70 59 50 44 43 46 48 49 47 44 42 41 40 38 36 37 42 48 48 44 38 32 26 22 18 15 12 10
21 22 27 33 41 48 51 51 57 72 87 94 96 100 100 94 78 60 50 48 51 55 55 52 48 46 44 42 39 40 46 55 53 45 42 36 33 26 20 15 12 9 8
Wind_Speed
17 16 16 15 18 16 15 15 23 22 27 27 25 25 13 12 9 8 7 6 5 5 5 4 5 6 7 8 8 8 8 7 7 8 7 7 8 8 8 9 8 10 9
17 16 18 21 19 19 17 16 20 22 24 23 24 24 18 12 10 9 7 5 5 3 2 4 5 5 5 5 7 7 8 8 8 7 7 7 7 6 6 6 6 6 8
11 13 14 14 16 15 11 17 25 23 20 16 19 20 15 11 9 6 3 2 4 4 3 2 3 4 4 6 5 6 6 6 6 6 6 5 6 5 5 5 6 5 5
17 18 15 18 8 19 3 26 26 26 27 20 19 16 11 8 5 4 3 3 3 3 2 2 3 3 3 4 4 3 3 2 4 5 5 6 6 6 6 5 5 5 6
18 17 15 15 26 18 19 18 22 19 19 18 15 9 6 4 4 5 4 4 5 5 3 3 2 2 3 3 3 3 2 1 1 0 3 7 8 9 9 8 6 6 5
13 15 17 20 10 14 10 5 12 14 17 17 8 5 4 4 5 6 6 6 6 5 5 3 2 2 2 3 2 2 1 1 3 3 4 5 6 7 10 12 11 10 9
4 15 16 17 15 15 12 11 9 8 6 4 6 5 6 5 6 7 7 6 5 4 4 3 2 1 1 1 0 1 0 1 1 3 5 7 7 6 6 7 11 12 12
11 14 13 14 11 16 9 8 8 6 6 7 7 7 8 7 8 8 7 7 7 6 5 5 5 5 4 5 5 5 5 5 5 5 6 8 8 8 8 9 9 9 11
14 12 19 13 14 15 12 10 9 5 6 6 7 6 7 7 8 8 8 8 7 7 7 7 7 7 7 8 8 8 8 8 9 9 9 10 12 12 12 11 10 12 13
9 18 16 9 11 12 14 11 9 8 8 8 9 7 8 9 9 8 8 8 8 8 8 9 9 8 9 9 9 10 10 10 11 11 12 13 14 15 15 16 15 15 16
16 16 16 12 16 14 14 13 13 11 10 11 10 9 10 10 10 10 10 10 10 10 10 11 9 9 9 10 11 11 12 12 13 13 14 15 15 15 16 17 18 19 20
15 22 23 22 22 19 17 17 15 15 13 13 12 12 12 13 13 12 13 12 12 12 12 11 10 11 11 11 13 13 14 14 15 15 14 16 16 17 18 19 20 22 23
19 19 21 21 21 21 21 21 20 19 17 17 16 15 15 15 15 15 14 14 14 14 13 13 12 12 13 14 13 14 16 16 16 16 16 17 18 19 21 21 22 23 23
18 20 23 21 21 24 23 24 24 22 20 19 19 19 18 18 17 16 16 16 16 15 14 14 14 14 15 16 17 15 15 18 19 19 19 19 20 20 21 22 22 24 25
19 20 21 24 23 24 26 27 26 24 23 22 21 21 20 20 19 19 18 18 17 17 16 16 16 16 16 17 17 18 17 18 20 21 21 21 22 24 24 25 26 27 28
20 21 21 22 23 25 27 28 27 25 25 23 24 22 22 22 21 21 20 19 19 19 18 18 17 17 17 18 19 19 19 20 21 21 23 24 24 25 26 27 29 29 30
21 22 23 23 23 26 28 29 30 29 27 26 25 25 24 23 23 23 21 21 20 20 19 19 19 19 19 19 20 21 22 23 23 24 25 26 27 27 28 29 30 31 32
24 25 25 25 26 26 27 30 30 30 28 28 27 26 26 25 24 24 23 22 21 22 22 22 21 20 20 21 22 22 24 25 26 27 28 29 30 31 31 32 32 33 34
26 28 28 28 29 29 30 31 32 31 30 30 29 29 27 27 26 26 25 24 23 24 24 24 23 21 21 22 23 24 25 26 27 28 29 30 31 32 33 34 35 36 37
27 30 33 33 33 33 34 34 34 34 33 32 31 30 30 29 28 28 26 26 26 25 26 25 24 23 22 22 24 25 26 27 28 29 30 31 33 34 35 36 37 39 41
31 33 34 35 36 37 37 37 35 34 34 33 32 32 32 31 30 28 28 28 27 28 27 27 26 26 24 25 26 27 27 28 29 30 31 33 33 35 37 38 40 42 43
37 36 36 36 38 38 39 39 38 38 36 36 36 35 34 32 31 31 30 29 30 29 28 28 27 27 27 28 28 28 29 29 29 30 30 33 35 37 39 41 43 44 46
40 39 39 39 39 40 40 40 42 42 40 38 36 36 36 35 34 33 32 32 31 30 29 29 30 30 30 30 30 31 31 31 31 31 32 34 36 38 40 41 43 45 47
30 39 42 41 41 41 40 43 44 43 41 38 36 37 37 37 36 35 34 33 32 31 31 31 32 32 31 31 32 31 31 33 34 36 34 37 38 38 39 40 41 44 46
28 31 35 40 42 42 42 44 44 43 42 41 41 40 40 39 38 36 35 34 33 33 33 33 33 32 32 32 31 31 31 34 38 42 40 37 37 36 38 39 41 43 46
22 28 31 34 40 42 43 43 43 42 42 43 41 41 40 38 37 37 36 35 35 34 33 34 34 34 33 33 31 31 33 37 38 41 43 40 39 35 37 38 40 43 46
Wind_Direction
265 259 251 250 258 241 245 240 242 233 226 211 236 202 174 186 178 168 140 127 108 111 151 139 116 118 146 151 147 143 139 145 137 133 124 117 110 107 111 113 114 114 115
266 259 241 262 260 238 239 236 232 216 191 193 171 165 151 175 173 153 144 134 130 112 101 143 145 125 115 128 152 160 168 165 161 150 147 141 132 134 129 116 120 123 122
264 260 249 254 235 228 231 238 224 206 165 159 160 148 159 167 173 186 203 231 244 239 220 178 143 142 135 120 125 159 189 188 184 190 180 175 164 153 149 159 154 151 146
283 267 245 237 213 210 247 153 171 174 165 166 146 141 148 173 192 221 226 215 193 192 166 153 149 174 153 135 131 142 142 183 210 209 209 210 208 199 192 186 185 182 178
267 228 226 229 197 137 143 140 117 132 148 154 133 142 166 184 222 237 212 180 181 158 147 150 139 130 133 137 150 165 165 145 112 121 220 229 234 230 229 233 227 225 218
255 243 205 200 182 221 140 192 144 138 173 124 130 158 187 216 229 210 189 168 155 139 129 128 112 107 98 98 105 113 150 179 213 215 238 235 233 254 262 254 249 248 246
243 196 211 188 139 143 147 139 148 128 139 159 208 237 245 232 213 197 180 163 167 161 163 178 192 236 258 277 231 262 237 226 254 263 262 267 268 262 254 262 257 256 253
206 183 188 176 189 149 144 171 177 175 203 217 237 234 230 209 203 194 188 187 192 202 204 215 224 241 255 271 274 273 272 263 256 253 261 273 275 273 267 260 260 253 249
195 223 200 183 182 187 191 191 211 202 250 253 246 227 232 210 210 207 205 210 219 228 233 243 244 254 257 260 268 268 266 269 270 268 265 266 270 273 272 268 261 258 258
205 182 189 174 189 207 211 210 226 221 236 244 237 227 224 225 220 231 234 238 244 250 252 257 256 256 260 263 267 270 269 265 264 267 267 266 269 272 276 280 280 276 270
220 194 196 202 192 220 231 226 234 236 238 245 246 243 235 236 240 240 245 250 254 257 259 259 261 262 264 268 266 267 268 269 268 268 268 269 267 269 271 269 270 271 270
242 232 229 233 233 231 234 237 242 246 247 255 249 247 248 246 246 248 252 257 258 259 256 254 257 264 267 268 275 278 278 276 276 275 275 277 280 278 272 269 268 266 266
236 233 233 232 236 235 238 242 241 244 247 250 255 254 254 254 254 256 261 263 262 257 255 258 260 263 267 272 271 275 280 282 283 284 287 284 282 282 280 281 277 277 278
248 234 234 239 235 236 235 239 245 243 247 250 256 259 260 257 258 259 261 261 263 262 262 264 264 265 272 276 280 279 281 286 290 292 290 288 285 283 283 282 284 284 281
247 243 239 239 245 244 238 244 244 245 249 252 256 262 264 260 260 262 263 266 265 263 264 262 265 273 279 282 282 284 284 284 289 292 294 294 291 291 294 293 292 291 290
248 247 243 240 243 243 239 241 243 248 251 256 258 262 261 259 260 262 263 264 264 265 264 265 267 274 278 281 286 286 288 289 289 290 291 291 291 293 294 293 292 290 290
243 249 247 246 245 242 240 241 244 250 253 254 257 259 260 262 264 266 266 265 266 268 267 267 270 275 282 286 287 288 291 292 292 292 292 293 294 294 293 291 290 289 288
246 243 245 249 248 247 247 245 245 249 251 255 258 261 262 264 266 267 269 269 270 270 267 265 266 271 279 285 290 294 294 293 293 293 293 295 295 295 294 292 291 290 289
244 244 246 246 246 246 248 250 251 252 252 254 257 259 262 265 267 268 268 268 269 268 265 263 265 272 278 284 289 291 291 293 293 293 293 293 292 291 291 290 289 288 287
248 245 244 243 244 245 245 245 247 250 252 256 260 262 262 262 264 265 267 267 266 267 266 266 266 269 274 281 285 289 292 293 292 292 293 293 293 292 291 290 289 289 288
252 249 248 247 247 248 250 251 252 255 254 256 258 259 259 260 262 265 265 266 267 267 267 266 267 270 276 280 284 288 291 293 294 294 293 293 293 292 292 291 290 289 288
259 258 257 256 255 252 252 253 253 253 253 254 257 260 262 264 265 266 265 264 264 266 268 271 273 274 275 277 281 285 289 291 292 292 292 292 293 292 293 293 292 292 291
260 261 260 259 259 258 256 256 255 254 254 255 259 262 263 262 262 263 264 263 263 266 270 272 272 272 274 278 281 286 289 291 293 294 295 294 294 293 293 293 293 293 292
261 258 258 258 258 258 258 256 256 257 257 257 255 255 257 258 258 260 261 264 267 268 269 269 270 272 274 276 279 283 289 294 297 295 293 291 290 291 292 293 293 292 291
246 248 249 251 252 253 253 253 253 254 255 255 252 253 255 256 257 260 261 262 262 264 267 269 270 272 273 275 278 284 291 296 298 295 293 290 290 294 295 295 293 292 292
258 254 251 248 249 249 249 251 252 251 251 253 255 256 258 258 258 259 260 260 262 264 266 268 271 273 275 278 283 288 293 296 295 295 295 295 296 296 296 295 295 294 293